map of NDR home
Great Circle Mapper logo
NDR - Airport
Location
City:  Nador, Morocco
Name:Arwi
ICAO / IATA:GMMW / NDR

Details
Type:Airport (Aerodrome, Airfield)
Use:Public/Civil
Latitude:3459'20"N (34.988781)
Longitude:301'42"W (-3.028205)
Datum:WGS 1984
Elevation:574 ft (175 m)
Variation:0.74W (WMM2015 magnetic declination)
0.11 annual change
Runways:1
Longest:9842 × 148 ft (3000 × 45 m), paved

Time
Time Zone:UTC+0 (DST+1)
Local Time:

Weather
METAR:GMMW 080100Z VRB02KT 7000 FEW020 19/19 Q1015 NOSIG
TAF:GMMW 072300Z 0800/0906 VRB02KT 6000 FEW020
BECMG 0808/0810 01007KT
BECMG 0819/0821 VBR02KT 8000 NSC

Related Locations
Nearby:
Farthest:NZOX: 12318 mi / 19824 km
Okiwi Station, NZ

Find:

   beyond  
but within

Other Information
Maps:
NOTAMs:
Links:
Sources:

  
flag of Morocco   

Sectional Chart

Flight Planning
at skyvector.com

Satellite Image

Google Maps Satellite view

 

Copyright © 2004-2015 Karl L. Swartz. All rights reserved.
The Great Circle Mapper name and logo are trademarks of the Great Circle Mapper.
All other trademarks mentioned herein belong to their respective owners.
Please see credits for attibutions and further copyright information.

  Follow gcmap on Facebook Follow gcmap on Twitter Follow gcmap on Google+

hCard Microformat

Geo Microformat